SCP
2 3 3 4 4 4 4 3 3 3 2 2 2 2 1 1 0 0 0 0 0 0 0 0 0 0 0 0 0 0 0 0 0 0 0 0 0 0 0 0 0 0 0
2 2 3 4 4 4 4 5 6 5 3 2 2 2 2 1 1 1 0 0 0 1 1 1 0 0 0 0 0 0 0 0 0 0 0 0 0 0 0 0 0 0 0
1 2 3 4 4 5 5 7 10 7 3 3 2 2 2 2 1 1 1 1 1 1 1 1 1 1 1 0 0 0 0 0 0 0 0 0 0 0 0 0 0 0 0
1 2 3 4 4 5 6 7 7 6 3 3 3 2 2 2 1 1 1 1 1 1 1 1 1 1 1 1 0 0 0 0 0 0 0 0 0 0 0 0 0 0 0
1 1 2 3 4 5 6 5 4 4 3 3 3 2 2 2 1 1 1 1 1 1 1 1 1 1 1 1 0 0 0 0 0 0 0 0 0 0 0 0 0 0 0
1 1 2 3 4 4 5 4 3 3 3 2 2 2 2 2 1 1 1 1 1 1 1 1 1 1 1 0 0 0 0 0 0 0 0 0 0 0 0 0 0 0 0
2 2 2 3 3 3 3 3 2 2 1 1 2 2 1 1 1 1 1 1 0 0 0 0 0 0 0 0 0 0 0 0 1 0 0 0 0 0 0 0 0 0 0
3 2 2 3 2 2 2 2 1 1 1 1 1 1 1 1 0 0 0 0 0 0 0 0 0 0 0 0 0 0 0 0 0 0 0 0 0 0 0 0 0 0 0
2 2 2 2 1 1 1 1 0 0 0 0 0 0 0 0 0 0 0 0 0 0 0 0 0 0 0 0 0 0 0 0 0 0 0 0 0 0 0 0 0 0 0
0 1 1 1 1 1 0 0 0 0 0 0 0 0 0 0 0 0 0 0 0 0 0 0 0 0 0 0 0 0 0 0 0 0 0 0 0 0 0 0 0 0 0
0 0 0 0 0 0 0 0 0 0 0 0 0 0 0 0 0 0 0 0 0 0 0 0 0 0 0 0 0 0 0 0 0 0 0 0 0 0 0 0 0 0 0
0 0 0 0 0 0 0 0 0 0 0 0 0 0 0 0 0 0 0 0 0 0 0 0 0 0 0 0 0 0 0 0 0 0 0 0 0 0 0 0 0 0 0
0 0 0 0 0 0 0 0 0 0 0 0 0 0 0 0 0 0 0 0 0 0 0 0 0 0 0 0 0 0 0 0 0 0 0 0 0 0 0 0 0 0 0
0 0 0 0 0 0 0 0 0 0 0 0 0 0 0 0 0 0 0 0 0 0 0 0 0 0 0 0 0 0 0 0 0 0 0 0 0 0 0 0 0 0 0
0 0 0 0 0 0 0 0 0 0 0 0 0 0 0 0 0 0 0 0 0 0 0 0 0 0 0 0 0 0 0 0 0 0 0 0 0 0 0 0 0 0 0
0 0 0 0 0 0 0 0 0 0 0 0 0 0 0 0 0 0 0 0 0 0 0 0 0 0 0 0 0 0 0 0 0 0 0 0 0 0 0 0 0 0 0
0 0 0 0 0 0 0 0 0 0 0 0 0 0 0 0 0 0 0 0 0 0 0 0 0 0 0 0 0 0 0 0 0 0 0 0 0 0 0 0 0 0 0
0 0 0 0 0 0 0 0 0 0 0 0 0 0 0 0 0 0 0 0 0 0 0 0 0 0 0 0 0 0 0 0 0 0 0 0 0 0 0 0 0 0 0
0 0 0 0 0 0 0 0 0 0 0 0 0 0 0 0 0 0 0 0 0 0 0 0 0 0 0 0 0 0 0 0 0 0 0 0 0 0 0 0 0 0 0
0 0 0 0 0 0 0 0 0 0 0 0 0 0 0 0 0 0 0 0 0 0 0 0 0 0 0 0 0 0 0 0 0 0 0 0 0 0 0 0 0 0 0
0 0 0 0 0 0 0 0 0 0 0 0 0 0 0 0 0 0 0 0 0 0 0 0 0 0 0 0 0 0 0 0 0 0 0 0 0 0 0 0 0 0 0
0 0 0 0 0 0 0 0 0 0 0 0 0 0 0 0 0 0 0 0 0 0 0 0 0 0 0 0 0 0 0 0 0 0 0 0 0 0 0 0 0 0 0
0 0 0 0 0 0 0 0 0 0 0 0 0 0 0 0 0 0 0 0 0 0 0 0 0 0 0 0 0 0 0 0 0 0 0 0 0 0 0 0 0 0 0
0 0 0 0 0 0 0 0 0 0 0 0 0 0 0 0 0 0 0 0 0 0 0 0 0 0 0 0 0 0 0 0 0 0 0 0 0 0 0 0 0 0 0
0 0 0 0 0 0 0 0 0 0 0 0 0 0 0 0 0 0 0 0 0 0 0 0 0 0 0 0 0 0 0 0 0 0 0 0 0 0 0 0 0 0 0
0 0 0 0 0 0 0 0 0 0 0 0 0 0 0 0 0 0 0 0 0 0 0 0 0 0 0 0 0 0 0 0 0 0 0 0 0 0 0 0 0 0 0
Wind_Speed
2 4 5 7 8 9 10 11 10 9 8 5 5 4 4 3 3 4 6 6 6 6 5 4 4 4 3 4 3 2 2 2 1 1 3 3 2 3 2 2 3 4 5
2 3 4 6 8 9 10 10 10 10 9 6 4 3 3 3 3 3 4 5 6 6 6 6 5 5 4 4 4 3 2 2 2 1 1 4 4 2 2 2 2 4 4
6 4 5 6 7 8 8 7 7 6 6 5 3 2 2 2 1 2 2 4 5 6 6 6 5 5 5 4 5 5 5 3 2 2 2 1 3 4 2 2 2 3 3
8 6 6 7 7 7 5 4 3 3 2 2 3 4 3 3 2 1 2 3 4 5 5 5 6 5 4 5 5 5 4 4 3 2 3 3 3 2 4 3 2 3 3
9 6 5 6 4 4 4 3 3 2 1 2 3 3 2 1 0 1 2 2 1 1 2 3 3 3 3 4 4 4 5 4 4 4 3 3 3 3 3 4 4 3 2
8 4 0 3 5 5 4 4 4 3 3 3 2 1 1 1 1 2 3 1 0 1 2 2 2 0 1 3 3 4 5 5 5 4 4 4 3 4 4 5 3 3 3
9 6 3 4 5 5 5 4 5 4 3 4 4 2 1 2 2 3 3 2 0 1 2 2 1 1 1 2 2 3 4 5 6 6 5 5 4 3 3 3 2 2 2
10 10 8 5 5 5 5 5 5 4 3 3 3 3 2 2 1 1 1 1 1 1 1 2 2 2 2 2 3 3 4 4 6 6 6 5 5 5 4 4 3 1 2
11 10 9 7 5 5 5 4 4 4 3 3 3 4 3 2 2 2 2 1 1 1 2 2 2 2 2 2 2 2 4 4 5 6 6 5 4 4 4 4 3 3 1
9 10 9 8 6 5 5 5 4 4 3 3 3 2 3 2 2 2 2 3 2 3 3 3 3 2 2 2 2 3 3 4 4 4 6 6 4 4 4 4 3 3 3
8 8 8 7 6 6 6 5 4 4 4 3 3 3 3 3 3 3 3 2 2 3 3 3 3 2 3 3 3 4 4 5 5 4 5 6 6 5 4 4 4 3 3
5 6 7 7 7 7 6 5 5 4 3 3 3 3 3 3 3 3 3 2 3 3 3 3 3 3 3 4 4 4 4 4 4 3 4 5 4 6 5 4 5 4 4
4 5 5 6 6 5 5 4 4 4 3 4 4 4 4 3 3 2 2 3 3 4 4 4 4 4 4 4 4 3 3 3 3 3 1 1 3 4 3 4 4 2 2
4 4 4 4 4 4 3 3 3 3 3 4 4 4 4 3 3 2 3 4 4 4 5 4 4 4 4 4 4 4 4 5 5 6 5 5 3 1 2 2 2 2 2
5 5 5 5 4 4 3 2 2 2 3 4 4 4 4 4 4 4 4 4 4 5 5 5 5 5 5 5 5 5 5 5 6 6 7 7 9 9 5 3 2 1 1
5 6 6 6 5 4 3 1 0 1 2 4 4 4 4 5 5 5 5 5 5 4 5 6 6 6 5 7 9 6 6 6 6 5 5 6 8 9 11 12 10 7 3
4 5 5 6 5 4 3 2 0 2 3 3 4 4 4 5 5 5 5 5 4 4 4 4 5 5 5 7 9 9 6 7 6 6 6 5 6 6 6 8 10 11 11
3 4 5 5 5 4 2 0 1 3 4 4 3 3 4 4 4 4 5 4 3 3 3 3 4 4 5 5 7 8 6 6 6 5 5 6 7 6 6 6 7 7 7
2 3 4 5 4 3 1 1 3 3 4 3 3 2 3 3 3 3 3 3 3 3 3 2 3 4 4 4 4 5 4 4 5 5 5 6 6 9 8 7 6 6 6
2 3 4 4 3 3 1 2 3 3 3 2 2 2 2 2 2 2 1 1 1 2 2 2 3 3 4 5 2 3 2 3 3 3 5 7 7 7 7 5 5 6 4
1 2 3 4 4 3 2 2 2 2 2 2 1 1 1 1 1 2 1 1 1 1 2 2 2 2 3 4 3 1 1 1 1 2 3 3 7 7 5 3 3 2 2
2 2 2 3 4 4 3 2 2 2 2 2 2 2 2 2 2 2 2 2 1 0 1 1 1 2 2 3 4 4 3 2 1 0 1 2 6 6 6 4 3 2 2
1 1 2 3 3 4 3 2 1 2 2 2 2 2 3 4 4 3 3 3 3 2 1 1 1 1 2 2 3 5 5 2 1 1 2 4 5 5 4 6 6 3 2
1 1 2 2 2 3 3 2 2 2 2 2 2 2 3 3 4 4 3 3 4 3 3 2 2 2 2 3 3 2 2 3 2 2 3 4 5 4 4 4 4 3 1
1 1 1 1 1 2 2 2 2 2 2 2 2 1 1 2 2 2 2 2 2 1 1 1 2 2 2 3 3 1 1 2 2 2 2 2 3 3 4 3 3 3 2
1 1 1 1 1 1 1 1 0 1 2 1 1 0 1 1 1 1 1 2 1 2 2 1 1 1 2 4 7 7 6 5 3 2 1 1 2 2 3 3 4 3 2
Wind_Direction
190 184 200 197 191 192 193 193 188 182 173 170 174 170 182 188 197 208 214 215 214 205 194 201 207 198 205 216 209 201 219 236 203 288 311 297 264 260 268 306 322 331 334
279 223 212 204 199 199 200 200 198 190 189 189 179 168 159 170 187 202 212 216 215 209 204 204 204 201 205 217 209 193 195 223 188 172 334 327 329 306 255 290 316 333 338
272 240 219 210 202 205 207 209 211 203 203 187 152 121 106 105 149 212 226 227 217 210 203 204 202 201 199 215 216 199 199 215 209 190 176 220 291 313 304 278 303 325 341
287 251 216 208 199 197 187 195 194 195 202 175 164 159 170 189 209 233 248 251 230 214 205 203 202 202 203 219 225 211 204 199 217 203 213 212 195 261 313 308 296 306 331
305 270 224 199 177 153 146 150 148 154 153 156 172 154 151 171 45 326 279 268 266 209 190 191 196 206 213 225 230 221 211 206 213 203 192 207 213 213 236 288 312 319 314
335 319 214 129 116 107 113 124 128 116 95 93 84 117 146 195 219 253 254 254 319 46 59 77 89 145 233 243 241 235 227 222 221 214 198 189 191 200 206 244 279 304 309
9 13 44 93 104 105 106 108 110 103 95 90 86 79 137 181 207 229 235 220 183 56 34 36 35 350 290 279 266 251 244 230 225 222 216 212 212 186 182 203 243 282 305
24 29 33 47 72 86 87 89 92 88 80 92 99 90 100 122 153 183 180 153 100 49 2 354 343 319 303 289 272 259 254 240 233 230 222 215 215 198 187 184 177 234 308
25 27 29 36 45 62 67 76 92 92 82 89 98 101 104 114 119 113 105 91 50 7 357 343 334 329 333 331 310 271 266 254 242 237 228 220 213 201 199 186 179 169 224
18 19 20 20 25 43 54 58 75 84 76 69 71 84 87 91 99 95 80 66 43 25 17 7 350 340 341 340 327 300 282 268 254 236 227 222 210 201 196 194 190 175 178
16 14 11 13 21 35 50 55 60 64 60 57 63 70 69 76 81 77 69 64 52 35 26 11 6 6 359 348 334 312 299 282 271 250 231 227 210 201 198 194 188 186 178
16 16 13 17 26 33 43 51 51 50 46 50 61 62 62 70 73 70 59 55 50 39 34 26 23 9 357 345 331 317 315 310 301 284 243 231 211 208 203 198 198 193 189
15 13 15 17 21 26 38 50 52 46 42 49 56 56 51 54 56 60 69 65 55 43 34 31 25 9 355 345 337 334 351 9 6 3 345 246 201 204 200 203 201 192 180
4 6 5 3 7 12 24 43 55 54 57 60 56 46 34 32 34 52 69 62 57 47 32 24 21 12 8 8 13 27 40 45 41 39 43 44 56 98 155 170 179 176 166
360 358 353 346 347 353 2 25 59 67 70 69 61 42 27 35 42 52 56 54 50 46 32 26 24 20 23 25 33 40 44 49 50 43 41 48 59 61 66 81 91 129 141
350 349 345 339 335 332 332 340 25 107 91 78 63 47 40 43 43 43 48 49 42 35 33 27 23 25 26 46 56 58 52 46 46 39 32 42 48 58 64 66 65 67 84
334 333 330 324 319 317 314 304 284 120 108 98 83 66 58 51 44 42 45 41 29 23 23 20 21 19 17 53 68 69 67 57 46 37 32 38 34 46 64 64 63 58 52
316 324 323 319 319 320 325 331 96 112 112 102 90 77 67 56 48 46 40 31 21 13 6 9 12 11 15 54 76 76 70 63 47 38 34 42 35 34 58 64 58 49 38
273 297 308 311 317 323 331 104 103 101 102 98 90 75 66 62 47 42 37 26 11 352 342 354 8 10 2 27 77 75 65 56 38 26 29 37 40 39 56 64 58 46 24
288 318 331 338 348 350 24 124 123 112 108 100 79 61 60 55 32 12 15 27 329 296 313 343 2 6 356 360 49 76 67 51 26 17 21 31 38 39 50 57 58 48 15
321 349 3 6 358 3 37 92 105 108 104 94 75 52 47 48 33 3 344 331 277 292 310 329 341 335 328 340 338 305 66 79 45 24 13 8 19 32 43 50 47 37 21
348 14 27 19 11 16 37 74 81 68 61 59 54 42 35 34 43 40 25 20 36 39 306 309 332 330 316 295 303 301 280 216 175 321 347 344 8 31 37 29 21 56 67
29 50 53 29 19 17 37 60 50 57 62 68 58 51 49 44 40 45 44 36 34 23 347 331 326 329 334 325 301 311 322 282 228 280 350 9 31 41 35 33 42 51 49
101 98 81 51 23 15 32 45 42 60 59 55 51 58 60 53 47 47 44 42 33 15 2 5 359 352 7 8 353 341 358 2 349 359 6 23 35 46 35 27 24 24 19
124 114 108 63 11 17 25 26 55 79 68 46 37 50 68 80 64 58 55 60 56 37 355 342 346 4 14 357 359 10 20 9 354 358 3 13 12 10 9 6 4 5 9
168 163 183 221 285 329 327 317 321 128 126 104 86 97 90 87 85 73 54 56 96 75 68 76 97 70 44 38 49 47 40 32 24 47 356 347 350 347 344 341 337 337 348